CXA809 ZSFZ-RJAA

Flight info

Callsign CXA809
Flight time 2h 56m
Altitude 39000
Route RUP91D RUPOX B221 DST W117 BEGMO W13 LASAN W114 DUMET A593 AKARA/K0907F390 A593 LAMEN/N0491F390 A593 SADLI Y590 BEDAR Y591 FUE Y23 KASTE Y81 RUTAS
Aircraft B789/H-SDE1E2E3FGHIJ2J3J4J5M1RWXY/LB1D1

Departure

Time 2026-04-26 01:28
Airport Fuzhou Changle International Airport (ZSFZ)

Arrival

Time 2026-04-26 04:24
Airport Narita International Airport (RJAA)
Time Latitude Longitude Altitude Speed Heading
2026-04-26 01:00 25.92694 119.66353 29 ft 0 kts 76°
2026-04-26 01:11 25.92690 119.66335 29 ft 4 kts 76°
2026-04-26 01:11 25.92684 119.66306 29 ft 4 kts 80°
2026-04-26 01:12 25.92687 119.66280 27 ft 4 kts 127°
2026-04-26 01:12 25.92700 119.66263 28 ft 4 kts 146°
2026-04-26 01:12 25.92723 119.66256 26 ft 4 kts 200°
2026-04-26 01:12 25.92746 119.66271 27 ft 4 kts 211°
2026-04-26 01:13 25.92752 119.66275 28 ft 0 kts 207°
2026-04-26 01:17 25.92742 119.66269 27 ft 4 kts 207°
2026-04-26 01:17 25.92711 119.66252 28 ft 6 kts 207°
2026-04-26 01:17 25.92673 119.66230 29 ft 7 kts 207°
2026-04-26 01:17 25.92628 119.66204 29 ft 8 kts 207°
2026-04-26 01:18 25.92578 119.66175 29 ft 9 kts 207°
2026-04-26 01:18 25.92531 119.66144 29 ft 3 kts 229°
2026-04-26 01:18 25.92529 119.66134 29 ft 3 kts 266°
2026-04-26 01:18 25.92540 119.66098 29 ft 5 kts 284°
2026-04-26 01:19 25.92537 119.66046 29 ft 5 kts 238°
2026-04-26 01:19 25.92503 119.66017 29 ft 8 kts 208°
2026-04-26 01:19 25.92454 119.65987 29 ft 8 kts 208°
2026-04-26 01:19 25.92399 119.65955 29 ft 9 kts 207°
2026-04-26 01:20 25.92338 119.65922 29 ft 10 kts 206°
2026-04-26 01:20 25.92274 119.65886 29 ft 11 kts 206°
2026-04-26 01:20 25.92204 119.65847 29 ft 11 kts 207°
2026-04-26 01:20 25.92131 119.65805 29 ft 12 kts 207°
2026-04-26 01:21 25.92055 119.65761 29 ft 13 kts 207°
2026-04-26 01:21 25.91998 119.65729 29 ft 3 kts 206°
2026-04-26 01:21 25.91984 119.65714 29 ft 3 kts 237°
2026-04-26 01:21 25.91981 119.65694 29 ft 3 kts 274°
2026-04-26 01:22 25.91986 119.65676 29 ft 6 kts 290°
2026-04-26 01:22 25.92000 119.65642 28 ft 0 kts 295°
2026-04-26 01:23 25.92004 119.65632 29 ft 3 kts 295°
2026-04-26 01:23 25.92011 119.65616 29 ft 4 kts 296°
2026-04-26 01:23 25.92024 119.65586 29 ft 5 kts 296°
2026-04-26 01:24 25.92043 119.65554 29 ft 4 kts 321°
2026-04-26 01:24 25.92063 119.65550 29 ft 2 kts
2026-04-26 01:24 25.92077 119.65555 29 ft 4 kts 20°
2026-04-26 01:24 25.92106 119.65569 29 ft 5 kts 27°
2026-04-26 01:25 25.92114 119.65573 29 ft 0 kts 27°
2026-04-26 01:27 25.92117 119.65575 27 ft 0 kts 27°
2026-04-26 01:27 25.92157 119.65598 29 ft 32 kts 26°
2026-04-26 01:27 25.92589 119.65841 29 ft 105 kts 26°
2026-04-26 01:27 25.93430 119.66313 29 ft 164 kts 26°
2026-04-26 01:28 25.94582 119.66971 246 ft 196 kts 32°
2026-04-26 01:28 25.95775 119.67674 1167 ft 198 kts 26°
2026-04-26 01:28 25.97056 119.68425 1859 ft 217 kts 26°
2026-04-26 01:28 25.98499 119.69202 2384 ft 244 kts 24°
2026-04-26 01:29 26.00109 119.70058 3049 ft 262 kts 26°
2026-04-26 01:29 26.01725 119.70983 4406 ft 258 kts 25°
2026-04-26 01:29 26.03312 119.71888 5580 ft 262 kts 25°
2026-04-26 01:29 26.04962 119.72819 6572 ft 270 kts 25°
2026-04-26 01:30 26.06650 119.73771 7603 ft 273 kts 25°
2026-04-26 01:30 26.08416 119.74555 8571 ft 275 kts
2026-04-26 01:30 26.10330 119.74594 9550 ft 278 kts 357°
2026-04-26 01:30 26.12283 119.74479 10375 ft 289 kts 355°
2026-04-26 01:31 26.14384 119.74308 10688 ft 317 kts 355°
2026-04-26 01:31 26.16681 119.74154 10963 ft 344 kts 356°
2026-04-26 01:31 26.19157 119.74013 11330 ft 363 kts 356°
2026-04-26 01:31 26.21680 119.73864 12298 ft 364 kts 355°
2026-04-26 01:32 26.24222 119.73701 13167 ft 368 kts 355°
2026-04-26 01:32 26.26789 119.73536 14026 ft 371 kts 355°
2026-04-26 01:32 26.29380 119.73374 14775 ft 375 kts 354°
2026-04-26 01:32 26.31994 119.73210 15539 ft 377 kts 354°
2026-04-26 01:33 26.34622 119.73050 16298 ft 380 kts 354°
2026-04-26 01:33 26.37275 119.72883 17026 ft 383 kts 354°
2026-04-26 01:33 26.39949 119.72713 17744 ft 386 kts 353°
2026-04-26 01:33 26.42646 119.72544 18429 ft 390 kts 353°
2026-04-26 01:34 26.45364 119.72375 19032 ft 393 kts 353°
2026-04-26 01:34 26.48106 119.72293 19648 ft 397 kts 358°
2026-04-26 01:34 26.50884 119.72366 20233 ft 401 kts 357°
2026-04-26 01:34 26.53687 119.72423 20826 ft 403 kts 357°
2026-04-26 01:35 26.56504 119.72478 21361 ft 406 kts 357°
2026-04-26 01:35 26.59301 119.72538 21905 ft 409 kts 358°
2026-04-26 01:35 26.62152 119.72601 22434 ft 412 kts 358°
2026-04-26 01:35 26.65025 119.72662 22953 ft 414 kts 358°
2026-04-26 01:36 26.67919 119.72723 23447 ft 417 kts 358°
2026-04-26 01:36 26.70832 119.72785 23873 ft 419 kts 358°
2026-04-26 01:36 26.73767 119.72846 24230 ft 422 kts 357°
2026-04-26 01:37 26.79673 119.72976 25040 ft 426 kts 357°
2026-04-26 01:37 26.82644 119.73040 25420 ft 428 kts 358°
2026-04-26 01:37 26.85630 119.73104 25761 ft 430 kts 358°
2026-04-26 01:37 26.88593 119.73247 26104 ft 435 kts
2026-04-26 01:38 26.91575 119.73915 26399 ft 442 kts 12°
2026-04-26 01:38 26.94467 119.75152 26772 ft 449 kts 21°
2026-04-26 01:38 26.97178 119.76955 27129 ft 458 kts 31°
2026-04-26 01:38 26.99620 119.79314 27482 ft 469 kts 41°
2026-04-26 01:39 27.01694 119.82179 27826 ft 479 kts 51°
2026-04-26 01:39 27.03297 119.85486 28282 ft 487 kts 62°
2026-04-26 01:39 27.04425 119.89108 28561 ft 494 kts 67°
2026-04-26 01:39 27.05473 119.92786 28872 ft 496 kts 67°
2026-04-26 01:40 27.06500 119.96488 29163 ft 498 kts 68°
2026-04-26 01:40 27.07533 120.00205 29448 ft 500 kts 67°
2026-04-26 01:40 27.08583 120.03933 29725 ft 501 kts 67°
2026-04-26 01:40 27.09636 120.07672 30009 ft 503 kts 67°
2026-04-26 01:41 27.10695 120.11423 30209 ft 504 kts 65°
2026-04-26 01:41 27.12115 120.14917 30515 ft 496 kts 55°
2026-04-26 01:41 27.14020 120.18110 30694 ft 491 kts 46°
2026-04-26 01:41 27.16349 120.20880 30931 ft 484 kts 36°
2026-04-26 01:42 27.19004 120.23162 31184 ft 478 kts 27°
2026-04-26 01:42 27.21814 120.25167 31392 ft 480 kts 27°
2026-04-26 01:42 27.24640 120.27169 31671 ft 479 kts 26°
2026-04-26 01:42 27.27466 120.29154 31988 ft 478 kts 26°
2026-04-26 01:43 27.30283 120.31141 32295 ft 478 kts 26°
2026-04-26 01:43 27.33092 120.33134 32627 ft 477 kts 26°
2026-04-26 01:43 27.35896 120.35124 32967 ft 476 kts 26°
2026-04-26 01:43 27.38696 120.37105 33304 ft 475 kts 26°
2026-04-26 01:44 27.41492 120.39091 33614 ft 475 kts 26°
2026-04-26 01:44 27.44285 120.41081 33958 ft 474 kts 26°
2026-04-26 01:44 27.47072 120.43064 34243 ft 474 kts 26°
2026-04-26 01:44 27.49861 120.45047 34447 ft 475 kts 26°
2026-04-26 01:45 27.52655 120.47036 34669 ft 475 kts 26°
2026-04-26 01:45 27.55451 120.49030 34865 ft 476 kts 26°
2026-04-26 01:45 27.58250 120.51027 35072 ft 477 kts 26°
2026-04-26 01:46 27.63891 120.55051 35162 ft 480 kts 26°
2026-04-26 01:46 27.69420 120.59139 35168 ft 481 kts 33°
2026-04-26 01:47 27.74037 120.64774 35181 ft 500 kts 51°
2026-04-26 01:47 27.76902 120.72046 35181 ft 518 kts 71°
2026-04-26 01:48 27.78599 120.79969 35177 ft 519 kts 71°
2026-04-26 01:48 27.80248 120.87889 35166 ft 517 kts 71°
2026-04-26 01:49 27.81917 120.95790 35178 ft 517 kts 71°
2026-04-26 01:49 27.83564 121.03695 35162 ft 516 kts 71°
2026-04-26 01:50 27.85213 121.11586 35158 ft 517 kts 71°
2026-04-26 01:50 27.86846 121.19448 35160 ft 518 kts 71°
2026-04-26 01:51 27.88496 121.27398 35162 ft 520 kts 71°
2026-04-26 01:51 27.90148 121.35350 35176 ft 518 kts 71°
2026-04-26 01:52 27.91785 121.43265 35164 ft 516 kts 71°
2026-04-26 01:52 27.93416 121.51166 35163 ft 516 kts 71°
2026-04-26 01:53 27.95044 121.59082 35166 ft 518 kts 71°
2026-04-26 01:53 27.96673 121.67029 35170 ft 518 kts 71°
2026-04-26 01:54 27.98397 121.74886 35185 ft 512 kts 64°
2026-04-26 01:54 28.01745 121.81826 35177 ft 498 kts 45°
2026-04-26 01:55 28.06734 121.87030 35179 ft 480 kts 26°
2026-04-26 01:55 28.12560 121.90580 35167 ft 475 kts 21°
2026-04-26 01:56 28.18442 121.93972 35167 ft 474 kts 21°
2026-04-26 01:56 28.24330 121.97380 35167 ft 474 kts 21°
2026-04-26 01:57 28.30204 122.00783 35161 ft 473 kts 21°
2026-04-26 01:57 28.36063 122.04179 35164 ft 473 kts 21°
2026-04-26 01:58 28.41922 122.07582 35174 ft 473 kts 22°
2026-04-26 01:58 28.47818 122.11007 35162 ft 478 kts 22°
2026-04-26 01:59 28.53675 122.14421 35161 ft 475 kts 22°
2026-04-26 01:59 28.59558 122.17847 35156 ft 475 kts 22°
2026-04-26 02:00 28.65434 122.21278 35158 ft 475 kts 22°
2026-04-26 02:00 28.71313 122.24712 35159 ft 474 kts 22°
2026-04-26 02:01 28.77170 122.28140 35161 ft 473 kts 22°
2026-04-26 02:01 28.83016 122.31564 35143 ft 472 kts 22°
2026-04-26 02:02 28.88860 122.34991 35166 ft 472 kts 22°
2026-04-26 02:02 28.94745 122.38447 35158 ft 477 kts 22°
2026-04-26 02:03 29.00654 122.41923 35160 ft 481 kts 22°
2026-04-26 02:03 29.06604 122.45428 35158 ft 478 kts 22°
2026-04-26 02:04 29.12495 122.48901 35157 ft 476 kts 22°
2026-04-26 02:04 29.18567 122.51615 35169 ft 465 kts
2026-04-26 02:05 29.24934 122.52058 35169 ft 456 kts 350°
2026-04-26 02:05 29.31102 122.50773 35157 ft 453 kts 346°
2026-04-26 02:06 29.37292 122.49338 35156 ft 453 kts 346°
2026-04-26 02:06 29.43452 122.47912 35157 ft 451 kts 346°
2026-04-26 02:07 29.49606 122.46485 35160 ft 451 kts 346°
2026-04-26 02:07 29.55725 122.45064 35156 ft 451 kts 346°
2026-04-26 02:08 29.61922 122.43624 35155 ft 451 kts 346°
2026-04-26 02:08 29.68076 122.42192 35156 ft 451 kts 346°
2026-04-26 02:09 29.74231 122.40758 35156 ft 451 kts 346°
2026-04-26 02:09 29.79349 122.39564 35154 ft 452 kts 346°
2026-04-26 02:10 29.86549 122.37882 35149 ft 452 kts 346°
2026-04-26 02:10 29.91679 122.36711 35151 ft 452 kts 349°
2026-04-26 02:10 29.95863 122.36505 35156 ft 458 kts 360°
2026-04-26 02:11 29.99057 122.36702 35150 ft 459 kts 359°
2026-04-26 02:11 30.05446 122.37102 35154 ft 459 kts 359°
2026-04-26 02:12 30.10743 122.37438 35156 ft 457 kts 359°
2026-04-26 02:12 30.18102 122.37898 35150 ft 453 kts 359°
2026-04-26 02:13 30.23389 122.38231 35140 ft 453 kts 359°
2026-04-26 02:13 30.29661 122.38590 35146 ft 454 kts 358°
2026-04-26 02:14 30.35964 122.38901 35156 ft 453 kts 359°
2026-04-26 02:14 30.42269 122.39244 35141 ft 454 kts 359°
2026-04-26 02:15 30.48582 122.39570 35145 ft 455 kts 359°
2026-04-26 02:15 30.54905 122.39907 35155 ft 454 kts 359°
2026-04-26 02:16 30.61219 122.40241 35147 ft 453 kts 359°
2026-04-26 02:16 30.67515 122.40607 35151 ft 453 kts 359°
2026-04-26 02:17 30.73794 122.40956 35154 ft 455 kts 359°
2026-04-26 02:17 30.80124 122.41317 35158 ft 456 kts 359°
2026-04-26 02:18 30.86469 122.41676 35154 ft 455 kts 359°
2026-04-26 02:18 30.92779 122.42034 35149 ft 453 kts 359°
2026-04-26 02:19 30.99017 122.43401 35161 ft 464 kts 15°
2026-04-26 02:19 31.04738 122.47054 35177 ft 478 kts 33°
2026-04-26 02:20 31.09888 122.52002 35156 ft 479 kts 34°
2026-04-26 02:20 31.15008 122.56986 35158 ft 479 kts 34°
2026-04-26 02:21 31.20127 122.61949 35169 ft 478 kts 34°
2026-04-26 02:21 31.25212 122.66900 35158 ft 478 kts 34°
2026-04-26 02:22 31.30319 122.71873 35157 ft 477 kts 34°
2026-04-26 02:22 31.34837 122.77660 35169 ft 493 kts 53°
2026-04-26 02:23 31.37559 122.85123 35180 ft 509 kts 72°
2026-04-26 02:23 31.39148 122.93213 35161 ft 510 kts 72°
2026-04-26 02:24 31.40695 123.01293 35165 ft 508 kts 72°
2026-04-26 02:24 31.42261 123.09370 35164 ft 508 kts 72°
2026-04-26 02:25 31.43806 123.17448 35161 ft 508 kts 73°
2026-04-26 02:25 31.45354 123.25524 35159 ft 509 kts 73°
2026-04-26 02:26 31.46895 123.33618 35162 ft 509 kts 73°
2026-04-26 02:26 31.48425 123.41668 35158 ft 510 kts 73°
2026-04-26 02:27 31.49957 123.49761 35162 ft 507 kts 72°
2026-04-26 02:27 31.51732 123.57745 35157 ft 507 kts 71°
2026-04-26 02:28 31.53482 123.65754 35159 ft 507 kts 71°
2026-04-26 02:28 31.55263 123.73761 35159 ft 508 kts 71°
2026-04-26 02:29 31.57016 123.81788 35160 ft 509 kts 71°
2026-04-26 02:29 31.58786 123.89837 35162 ft 509 kts 71°
2026-04-26 02:30 31.60534 123.97865 35161 ft 508 kts 72°
2026-04-26 02:30 31.62315 124.05906 35156 ft 509 kts 71°
2026-04-26 02:31 31.64120 124.13903 35158 ft 510 kts 72°
2026-04-26 02:31 31.65904 124.21959 35163 ft 510 kts 72°
2026-04-26 02:32 31.67705 124.30035 35164 ft 513 kts 72°
2026-04-26 02:32 31.69484 124.38095 35157 ft 509 kts 72°
2026-04-26 02:33 31.71263 124.46140 35154 ft 509 kts 72°
2026-04-26 02:33 31.73040 124.54225 35141 ft 514 kts 73°
2026-04-26 02:34 31.74822 124.62349 35155 ft 513 kts 73°
2026-04-26 02:34 31.76595 124.70465 35143 ft 512 kts 73°
2026-04-26 02:35 31.78361 124.78568 35150 ft 514 kts 73°
2026-04-26 02:35 31.80134 124.86737 35445 ft 517 kts 74°
2026-04-26 02:35 31.81025 124.90852 35553 ft 519 kts 74°
2026-04-26 02:36 31.81915 124.94969 35743 ft 518 kts 75°
2026-04-26 02:36 31.82494 124.99142 36028 ft 518 kts 86°
2026-04-26 02:36 31.82407 125.03310 36281 ft 517 kts 98°
2026-04-26 02:36 31.81786 125.07474 36430 ft 518 kts 101°
2026-04-26 02:37 31.81111 125.11654 36560 ft 520 kts 102°
2026-04-26 02:37 31.80421 125.15841 36685 ft 523 kts 102°
2026-04-26 02:37 31.79729 125.20040 36812 ft 525 kts 102°
2026-04-26 02:37 31.79040 125.24255 36936 ft 525 kts 102°
2026-04-26 02:38 31.78350 125.28483 37063 ft 526 kts 103°
2026-04-26 02:38 31.77650 125.32714 37193 ft 527 kts 103°
2026-04-26 02:38 31.76948 125.36943 37312 ft 527 kts 103°
2026-04-26 02:38 31.76249 125.41174 37448 ft 526 kts 103°
2026-04-26 02:39 31.75552 125.45394 37561 ft 526 kts 103°
2026-04-26 02:39 31.74851 125.49605 37717 ft 526 kts 103°
2026-04-26 02:39 31.74147 125.53825 37830 ft 526 kts 103°
2026-04-26 02:39 31.73444 125.58041 37943 ft 526 kts 103°
2026-04-26 02:40 31.72764 125.62258 38078 ft 526 kts 99°
2026-04-26 02:40 31.72582 125.66555 38280 ft 529 kts 87°
2026-04-26 02:40 31.73076 125.70843 38415 ft 532 kts 76°
2026-04-26 02:40 31.73969 125.75004 38523 ft 534 kts 76°
2026-04-26 02:41 31.74912 125.79241 38592 ft 536 kts 76°
2026-04-26 02:41 31.76812 125.87747 38741 ft 537 kts 77°
2026-04-26 02:42 31.78667 125.96224 38864 ft 535 kts 77°
2026-04-26 02:42 31.80526 126.04694 39014 ft 535 kts 77°
2026-04-26 02:43 31.83286 126.17377 39002 ft 531 kts 77°
2026-04-26 02:43 31.85110 126.25786 38981 ft 531 kts 77°
2026-04-26 02:44 31.86938 126.34248 39015 ft 537 kts 77°
2026-04-26 02:44 31.88769 126.42741 38998 ft 532 kts 77°
2026-04-26 02:45 31.90565 126.51097 38979 ft 528 kts 78°
2026-04-26 02:45 31.92450 126.59525 39006 ft 535 kts 77°
2026-04-26 02:46 31.94311 126.68013 39002 ft 535 kts 78°
2026-04-26 02:46 31.96179 126.76502 38982 ft 536 kts 78°
2026-04-26 02:47 31.98044 126.85035 38996 ft 539 kts 78°
2026-04-26 02:47 31.99902 126.93547 38980 ft 534 kts 78°
2026-04-26 02:48 32.01732 127.01968 38987 ft 535 kts 79°
2026-04-26 02:48 32.03588 127.10522 38984 ft 541 kts 77°
2026-04-26 02:49 32.06437 127.18759 38988 ft 544 kts 68°
2026-04-26 02:49 32.09525 127.26900 38975 ft 543 kts 69°
2026-04-26 02:50 32.12596 127.35100 38978 ft 548 kts 69°
2026-04-26 02:50 32.15687 127.43313 38981 ft 547 kts 69°
2026-04-26 02:51 32.18754 127.51521 38999 ft 548 kts 69°
2026-04-26 02:51 32.21818 127.59712 38984 ft 548 kts 69°
2026-04-26 02:52 32.24883 127.67945 38987 ft 547 kts 69°
2026-04-26 02:52 32.27948 127.76189 38971 ft 550 kts 70°
2026-04-26 02:53 32.31038 127.84523 38986 ft 554 kts 70°
2026-04-26 02:53 32.34114 127.92836 38987 ft 550 kts 70°
2026-04-26 02:54 32.37177 128.01143 38971 ft 554 kts 70°
2026-04-26 02:54 32.40272 128.09548 38980 ft 557 kts 70°
2026-04-26 02:55 32.43360 128.17960 38983 ft 557 kts 70°
2026-04-26 02:55 32.46449 128.26396 38979 ft 562 kts 71°
2026-04-26 02:56 32.49561 128.34911 38977 ft 563 kts 71°
2026-04-26 02:56 32.52138 128.41980 39002 ft 562 kts 71°
2026-04-26 02:57 32.55716 128.51825 38990 ft 558 kts 71°
2026-04-26 02:57 32.58799 128.60330 38991 ft 558 kts 71°
2026-04-26 02:58 32.61840 128.68737 38983 ft 560 kts 72°
2026-04-26 02:58 32.64422 128.75902 39003 ft 565 kts 72°
2026-04-26 02:59 32.67255 128.84565 39023 ft 557 kts 83°
2026-04-26 02:59 32.69092 128.93493 38988 ft 559 kts 84°
2026-04-26 03:00 32.70936 129.02512 39030 ft 563 kts 83°
2026-04-26 03:00 32.72776 129.11472 38990 ft 558 kts 83°
2026-04-26 03:01 32.74593 129.20460 38977 ft 563 kts 84°
2026-04-26 03:01 32.76439 129.29523 38980 ft 564 kts 84°
2026-04-26 03:02 32.78263 129.38586 38988 ft 564 kts 85°
2026-04-26 03:02 32.80098 129.47704 38992 ft 568 kts 85°
2026-04-26 03:03 32.81912 129.56747 38997 ft 565 kts 85°
2026-04-26 03:03 32.83725 129.65872 38992 ft 570 kts 85°
2026-04-26 03:04 32.85235 129.75094 38997 ft 566 kts 89°
2026-04-26 03:04 32.86587 129.84319 38999 ft 566 kts 90°
2026-04-26 03:05 32.87923 129.93597 38997 ft 570 kts 90°
2026-04-26 03:05 32.89269 130.02886 39001 ft 569 kts 90°
2026-04-26 03:06 32.90594 130.12181 38989 ft 571 kts 90°
2026-04-26 03:06 32.91920 130.21452 38979 ft 571 kts 90°
2026-04-26 03:07 32.93237 130.30751 38976 ft 569 kts 90°
2026-04-26 03:07 32.94547 130.40063 38976 ft 571 kts 90°
2026-04-26 03:08 32.95859 130.49402 38956 ft 571 kts 90°
2026-04-26 03:08 32.97157 130.58734 38975 ft 570 kts 90°
2026-04-26 03:09 32.98451 130.68063 38973 ft 572 kts 90°
2026-04-26 03:09 32.99732 130.77357 38975 ft 572 kts 90°
2026-04-26 03:10 33.01012 130.86696 38975 ft 571 kts 90°
2026-04-26 03:10 33.02286 130.96049 38975 ft 572 kts 91°
2026-04-26 03:11 33.03553 131.05391 38981 ft 571 kts 91°
2026-04-26 03:11 33.04812 131.14765 38987 ft 573 kts 91°
2026-04-26 03:12 33.06069 131.24131 38998 ft 572 kts 91°
2026-04-26 03:12 33.07313 131.33491 39009 ft 572 kts 91°
2026-04-26 03:13 33.08553 131.42845 39011 ft 569 kts 91°
2026-04-26 03:13 33.09765 131.52097 39018 ft 568 kts 91°
2026-04-26 03:14 33.10983 131.61409 39019 ft 568 kts 91°
2026-04-26 03:14 33.12193 131.70735 39020 ft 569 kts 91°
2026-04-26 03:15 33.13399 131.80086 39026 ft 570 kts 90°
2026-04-26 03:15 33.14601 131.89437 39026 ft 570 kts 90°
2026-04-26 03:16 33.15792 131.98788 39013 ft 569 kts 90°
2026-04-26 03:16 33.16976 132.08128 39034 ft 571 kts 90°
2026-04-26 03:17 33.18153 132.17481 39041 ft 574 kts 90°
2026-04-26 03:17 33.19337 132.26908 39028 ft 574 kts 89°
2026-04-26 03:18 33.20510 132.36364 39031 ft 576 kts 89°
2026-04-26 03:18 33.21682 132.45819 39044 ft 577 kts 89°
2026-04-26 03:19 33.22847 132.55314 39047 ft 577 kts 89°
2026-04-26 03:19 33.24009 132.64795 39038 ft 576 kts 89°
2026-04-26 03:20 33.25151 132.74256 39063 ft 578 kts 89°
2026-04-26 03:20 33.26304 132.83791 39063 ft 580 kts 89°
2026-04-26 03:21 33.27441 132.93308 39065 ft 578 kts 89°
2026-04-26 03:21 33.28573 133.02831 39065 ft 579 kts 89°
2026-04-26 03:22 33.29692 133.12294 39068 ft 579 kts 89°
2026-04-26 03:22 33.30816 133.21920 39078 ft 583 kts 89°
2026-04-26 03:23 33.31932 133.31464 39066 ft 583 kts 89°
2026-04-26 03:23 33.33040 133.41086 39060 ft 584 kts 89°
2026-04-26 03:24 33.34150 133.50727 39068 ft 587 kts 89°
2026-04-26 03:24 33.35252 133.60394 39043 ft 584 kts 89°
2026-04-26 03:25 33.36339 133.70026 39032 ft 587 kts 88°
2026-04-26 03:25 33.37433 133.79731 39040 ft 588 kts 88°
2026-04-26 03:26 33.38507 133.89375 39058 ft 590 kts 88°
2026-04-26 03:26 33.39586 133.99106 39066 ft 590 kts 88°
2026-04-26 03:27 33.40657 134.08852 39072 ft 592 kts 88°
2026-04-26 03:27 33.41727 134.18648 39096 ft 594 kts 88°
2026-04-26 03:28 33.42789 134.28450 39074 ft 595 kts 88°
2026-04-26 03:28 33.43849 134.38313 39078 ft 596 kts 88°
2026-04-26 03:29 33.44902 134.48166 39074 ft 596 kts 88°
2026-04-26 03:29 33.45943 134.58019 39079 ft 596 kts 88°
2026-04-26 03:30 33.46979 134.67869 39073 ft 597 kts 88°
2026-04-26 03:30 33.48009 134.77758 39071 ft 598 kts 88°
2026-04-26 03:31 33.49027 134.87585 39100 ft 598 kts 88°
2026-04-26 03:31 33.50038 134.97445 39074 ft 595 kts 88°
2026-04-26 03:32 33.51042 135.07282 39063 ft 595 kts 88°
2026-04-26 03:32 33.52040 135.17145 39058 ft 597 kts 88°
2026-04-26 03:33 33.53032 135.27012 39049 ft 596 kts 88°
2026-04-26 03:33 33.54015 135.36892 39048 ft 597 kts 89°
2026-04-26 03:34 33.54993 135.46767 39059 ft 595 kts 88°
2026-04-26 03:34 33.55957 135.56617 39076 ft 594 kts 89°
2026-04-26 03:35 33.56914 135.66453 39069 ft 593 kts 89°
2026-04-26 03:35 33.57862 135.76292 39076 ft 594 kts 89°
2026-04-26 03:36 33.58801 135.86112 39098 ft 591 kts 89°
2026-04-26 03:36 33.59729 135.95921 39102 ft 592 kts 89°
2026-04-26 03:37 33.60647 136.05661 39112 ft 590 kts 89°
2026-04-26 03:37 33.61555 136.15439 39113 ft 590 kts 89°
2026-04-26 03:38 33.62459 136.25213 39124 ft 589 kts 89°
2026-04-26 03:38 33.63353 136.34988 39113 ft 590 kts 89°
2026-04-26 03:39 33.64243 136.44794 39116 ft 591 kts 89°
2026-04-26 03:39 33.65126 136.54601 39124 ft 591 kts 89°
2026-04-26 03:40 33.65998 136.64400 39119 ft 590 kts 89°
2026-04-26 03:40 33.66857 136.74117 39128 ft 589 kts 89°
2026-04-26 03:41 33.67711 136.83885 39127 ft 587 kts 89°
2026-04-26 03:41 33.68558 136.93670 39133 ft 592 kts 89°
2026-04-26 03:42 33.69406 137.03515 39134 ft 592 kts 89°
2026-04-26 03:42 33.70146 137.13321 39149 ft 585 kts 94°
2026-04-26 03:43 33.70434 137.23100 39135 ft 587 kts 94°
2026-04-26 03:43 33.70736 137.32843 39139 ft 588 kts 94°
2026-04-26 03:44 33.71018 137.42652 39127 ft 589 kts 94°
2026-04-26 03:44 33.71303 137.52506 39125 ft 591 kts 94°
2026-04-26 03:45 33.71575 137.62373 39132 ft 591 kts 94°
2026-04-26 03:45 33.71842 137.72231 39137 ft 590 kts 94°
2026-04-26 03:46 33.72057 137.80417 39129 ft 590 kts 94°
2026-04-26 03:47 33.72472 137.96876 39131 ft 592 kts 93°
2026-04-26 03:47 33.72671 138.05092 39129 ft 592 kts 93°
2026-04-26 03:48 33.72903 138.14965 39132 ft 591 kts 94°
2026-04-26 03:48 33.73127 138.24840 39130 ft 590 kts 93°
2026-04-26 03:49 33.73343 138.34686 39132 ft 589 kts 94°
2026-04-26 03:49 33.73550 138.44527 39127 ft 589 kts 94°
2026-04-26 03:50 33.73751 138.54372 39127 ft 589 kts 94°
2026-04-26 03:50 33.73943 138.64209 39130 ft 589 kts 94°
2026-04-26 03:51 33.74127 138.74033 39133 ft 587 kts 94°
2026-04-26 03:51 33.74320 138.83769 39128 ft 587 kts 90°
2026-04-26 03:51 33.74913 138.88662 39160 ft 594 kts 77°
2026-04-26 03:52 33.76175 138.93387 39134 ft 596 kts 66°
2026-04-26 03:52 33.80185 139.02075 39154 ft 595 kts 57°
2026-04-26 03:53 33.84464 139.10586 39148 ft 593 kts 57°
2026-04-26 03:53 33.88708 139.19091 39147 ft 592 kts 57°
2026-04-26 03:54 33.92927 139.27546 39151 ft 594 kts 57°
2026-04-26 03:54 33.97180 139.36096 39149 ft 595 kts 57°
2026-04-26 03:55 34.01427 139.44656 39153 ft 595 kts 57°
2026-04-26 03:55 34.05669 139.53220 39153 ft 594 kts 57°
2026-04-26 03:56 34.10492 139.61244 39156 ft 590 kts 47°
2026-04-26 03:56 34.15611 139.68908 39159 ft 590 kts 48°
2026-04-26 03:57 34.20734 139.76665 39163 ft 591 kts 48°
2026-04-26 03:57 34.25876 139.84424 39164 ft 591 kts 48°
2026-04-26 03:58 34.30995 139.92192 39161 ft 591 kts 48°
2026-04-26 03:58 34.36122 139.99973 39160 ft 591 kts 48°
2026-04-26 03:59 34.41244 140.07773 39159 ft 592 kts 48°
2026-04-26 03:59 34.46288 140.15615 39160 ft 583 kts 55°
2026-04-26 03:59 34.48423 140.19723 39151 ft 570 kts 56°
2026-04-26 04:00 34.50505 140.23760 39118 ft 558 kts 56°
2026-04-26 04:00 34.54553 140.31597 39047 ft 538 kts 56°
2026-04-26 04:01 34.58460 140.39180 38970 ft 520 kts 56°
2026-04-26 04:01 34.62230 140.46514 38868 ft 504 kts 56°
2026-04-26 04:02 34.65884 140.53635 38755 ft 490 kts 56°
2026-04-26 04:02 34.67684 140.57144 38436 ft 502 kts 56°
2026-04-26 04:02 34.69652 140.60695 38207 ft 511 kts 43°
2026-04-26 04:02 34.72154 140.63746 38043 ft 508 kts 30°
2026-04-26 04:03 34.75052 140.66129 37890 ft 497 kts 17°
2026-04-26 04:03 34.78179 140.67761 37724 ft 481 kts
2026-04-26 04:03 34.81379 140.68637 37550 ft 462 kts 353°
2026-04-26 04:03 34.84557 140.69049 37329 ft 460 kts 353°
2026-04-26 04:04 34.87739 140.69447 37131 ft 459 kts 352°
2026-04-26 04:04 34.90914 140.69836 36890 ft 457 kts 352°
2026-04-26 04:04 34.94075 140.70226 36645 ft 457 kts 352°
2026-04-26 04:04 34.97238 140.70622 36413 ft 457 kts 352°
2026-04-26 04:05 35.00404 140.71016 36178 ft 458 kts 352°
2026-04-26 04:05 35.03589 140.71424 35946 ft 462 kts 355°
2026-04-26 04:05 35.06788 140.72306 35786 ft 481 kts
2026-04-26 04:05 35.09937 140.73905 35602 ft 499 kts 19°
2026-04-26 04:06 35.12913 140.76181 35420 ft 509 kts 25°
2026-04-26 04:06 35.15856 140.78614 35193 ft 511 kts 26°
2026-04-26 04:06 35.18793 140.81068 34967 ft 511 kts 26°
2026-04-26 04:06 35.21734 140.83521 34745 ft 511 kts 25°
2026-04-26 04:07 35.24640 140.85930 34524 ft 511 kts 25°
2026-04-26 04:07 35.27585 140.88374 34313 ft 512 kts 25°
2026-04-26 04:07 35.30533 140.90833 34095 ft 512 kts 25°
2026-04-26 04:07 35.33473 140.93291 33842 ft 512 kts 25°
2026-04-26 04:08 35.36419 140.95751 33612 ft 510 kts 25°
2026-04-26 04:08 35.39351 140.98198 33366 ft 508 kts 25°
2026-04-26 04:08 35.42270 141.00637 33119 ft 507 kts 25°
2026-04-26 04:08 35.45224 141.02961 32883 ft 497 kts 16°
2026-04-26 04:09 35.48346 141.04624 32683 ft 482 kts
2026-04-26 04:09 35.51543 141.05602 32487 ft 465 kts 354°
2026-04-26 04:09 35.54701 141.05928 32285 ft 447 kts 345°
2026-04-26 04:09 35.57739 141.05663 32082 ft 429 kts 335°
2026-04-26 04:10 35.60672 141.05091 31896 ft 426 kts 336°
2026-04-26 04:10 35.63595 141.04526 31663 ft 423 kts 336°
2026-04-26 04:10 35.66499 141.03954 31433 ft 422 kts 336°
2026-04-26 04:10 35.69336 141.03224 31214 ft 408 kts 328°
2026-04-26 04:11 35.71960 141.02053 31016 ft 395 kts 321°
2026-04-26 04:11 35.74354 141.00499 30795 ft 382 kts 314°
2026-04-26 04:11 35.76461 140.98653 30615 ft 370 kts 307°
2026-04-26 04:11 35.78326 140.96527 30401 ft 361 kts 301°
2026-04-26 04:12 35.79920 140.94187 30184 ft 353 kts 295°
2026-04-26 04:12 35.81239 140.91678 29932 ft 346 kts 290°
2026-04-26 04:12 35.82443 140.89091 29669 ft 349 kts 291°
2026-04-26 04:12 35.83664 140.86494 29405 ft 351 kts 291°
2026-04-26 04:13 35.84885 140.83880 29141 ft 352 kts 291°
2026-04-26 04:13 35.86103 140.81257 28884 ft 354 kts 291°
2026-04-26 04:13 35.87328 140.78622 28609 ft 352 kts 291°
2026-04-26 04:13 35.88547 140.76006 27752 ft 354 kts 291°
2026-04-26 04:14 35.89781 140.73341 26697 ft 362 kts 291°
2026-04-26 04:14 35.91043 140.70615 25660 ft 370 kts 292°
2026-04-26 04:14 35.92336 140.67833 24613 ft 377 kts 293°
2026-04-26 04:14 35.93656 140.64988 23513 ft 385 kts 293°
2026-04-26 04:15 35.94998 140.62091 22310 ft 392 kts 294°
2026-04-26 04:15 35.96332 140.59213 21490 ft 389 kts 294°
2026-04-26 04:15 35.97672 140.56322 20645 ft 387 kts 294°
2026-04-26 04:15 35.99142 140.53538 19796 ft 389 kts 302°
2026-04-26 04:16 36.00772 140.50872 18964 ft 387 kts 301°
2026-04-26 04:16 36.02364 140.48212 18157 ft 385 kts 302°
2026-04-26 04:16 36.03958 140.45569 17343 ft 381 kts 302°
2026-04-26 04:16 36.05540 140.42962 16540 ft 377 kts 302°
2026-04-26 04:17 36.07102 140.40379 15758 ft 373 kts 303°
2026-04-26 04:17 36.08645 140.37818 15005 ft 369 kts 303°
2026-04-26 04:17 36.10164 140.35283 14255 ft 364 kts 302°
2026-04-26 04:17 36.11322 140.32547 13411 ft 358 kts 288°
2026-04-26 04:18 36.11912 140.29594 12581 ft 352 kts 275°
2026-04-26 04:18 36.11975 140.26584 11698 ft 349 kts 268°
2026-04-26 04:18 36.11755 140.23601 10815 ft 347 kts 253°
2026-04-26 04:18 36.10704 140.20943 10000 ft 345 kts 233°
2026-04-26 04:19 36.08954 140.18948 9129 ft 344 kts 212°
2026-04-26 04:19 36.06746 140.17870 8301 ft 343 kts 191°
2026-04-26 04:19 36.04374 140.17852 7489 ft 342 kts 170°
2026-04-26 04:19 36.02159 140.18883 6718 ft 340 kts 152°
2026-04-26 04:20 36.00154 140.20312 6467 ft 320 kts 150°
2026-04-26 04:20 35.98327 140.21674 6518 ft 295 kts 150°
2026-04-26 04:20 35.96639 140.22922 6636 ft 272 kts 150°
2026-04-26 04:20 35.95067 140.24060 6752 ft 250 kts 151°
2026-04-26 04:21 35.93639 140.25089 6406 ft 237 kts 151°
2026-04-26 04:21 35.92140 140.26171 4982 ft 259 kts 150°
2026-04-26 04:21 35.90593 140.27297 4072 ft 251 kts 149°
2026-04-26 04:21 35.89197 140.28289 4012 ft 214 kts 150°
2026-04-26 04:22 35.87955 140.29187 4005 ft 191 kts 149°
2026-04-26 04:22 35.86920 140.29940 3896 ft 162 kts 150°
2026-04-26 04:22 35.85987 140.30618 3670 ft 151 kts 149°
2026-04-26 04:22 35.85054 140.31298 2987 ft 152 kts 149°
2026-04-26 04:23 35.84158 140.31941 2211 ft 151 kts 150°
2026-04-26 04:23 35.83263 140.32567 1647 ft 144 kts 149°
2026-04-26 04:23 35.82509 140.33153 1550 ft 108 kts 148°
2026-04-26 04:23 35.81907 140.33608 658 ft 100 kts 133°
2026-04-26 04:24 35.81906 140.34278 91 ft 74 kts 81°
2026-04-26 04:24 35.81879 140.34698 113 ft 48 kts 126°
2026-04-26 04:24 35.81716 140.34906 48 ft 0 kts 242°
2026-04-26 04:24 35.81718 140.34911 47 ft 2 kts 239°
2026-04-26 04:25 35.81727 140.34927 38 ft 2 kts 233°
2026-04-26 04:25 35.81728 140.34944 36 ft 2 kts 336°
2026-04-26 04:25 35.81798 140.34913 38 ft 44 kts 342°
2026-04-26 04:25 35.81925 140.34879 36 ft 10 kts 347°
2026-04-26 04:26 35.81993 140.34864 34 ft 10 kts 345°
2026-04-26 04:26 35.82127 140.34771 37 ft 51 kts 315°
2026-04-26 04:26 35.82170 140.34656 40 ft 2 kts 280°
2026-04-26 04:26 35.82162 140.34670 39 ft 2 kts 30°
2026-04-26 04:27 35.82156 140.34671 37 ft 2 kts 101°
2026-04-26 04:27 35.82152 140.34702 38 ft 8 kts 91°
2026-04-26 04:27 35.82143 140.34768 37 ft 8 kts 119°
2026-04-26 04:27 35.82106 140.34806 37 ft 33 kts 149°
2026-04-26 04:28 35.81751 140.34898 43 ft 60 kts 161°
2026-04-26 04:28 35.81748 140.34898 42 ft 8 kts 158°